Weather History for PAOM - March, 2014

Change the Weather History Date:

Monday, March 31, 2014

  Actual Average Record
Temperature  
Mean Temperature 20 °F 13 °F  
Max Temperature 26 °F 21 °F 42 °F (1993)
Min Temperature 14 °F - -28 °F (1920)
Degree Days  
Heating Degree Days 45 52  
Month to date heating degree days 1620 1696  
Since 1 July heating degree days 9766 10978  
Cooling Degree Days 0    
Month to date cooling degree days 0  
Year to date cooling degree days 0  
Moisture  
Dew Point 15 °F    
Average Humidity 0    
Maximum Humidity 0    
Minimum Humidity 0    
Precipitation  
Precipitation 0.00 in 0.02 in 0.45 in (1998)
Month to date precipitation 0.53 0.65  
Year to date precipitation 2.70 2.52  
Snow  
Snow 0.00 in 0.20 in 6.30 in (1998)
Month to date snowfall 12.3 8.9  
Since 1 July snowfall 66.6 65.6  
Snow Depth 10.00 in    
Sea Level Pressure  
Sea Level Pressure 30.25 in    
Wind  
Wind Speed 7 mph (ENE)    
Max Wind Speed 22 mph    
Max Gust Speed 26 mph    
Visibility 10 miles    
Events      
T = Trace of Precipitation, MM = Missing Value Source: NWS Daily Summary

Daily Weather History Graph

Daily Weather History Graph

Search for Another Location

Airport or City:

Trip Planner

Search our weather history database for the weather conditions in past years. The results will help you decide how hot, cold, wet, or windy it might be!

Date:

Astronomy

Mar. 31, 2014 Rise Set
Actual Time 8:21 AM AKDT 9:51 PM AKDT
Civil Twilight 7:31 AM AKDT 10:42 PM AKDT
Nautical Twilight 6:26 AM AKDT 11:48 PM AKDT
Astronomical Twilight 5:01 AM AKDT 1:16 AM AKDT
Moon 8:28 AM AKDT (3/31) No Moon Set
Length of Visible Light 15h 11m
Length of Day
13h 30m
New Moon, 1% of the Moon is Illuminated
Mar 31
New Moon
Apr 7
First Quarter
Apr 14
Full
Apr 21
Last Quarter
Apr 28
New

Hourly Weather History & Observations

Time (AKDT) Temp. Windchill Dew Point Humidity Pressure Visibility Wind Dir Wind Speed Gust Speed Precip Events Conditions
12:32 AM 18.0 °F 12.7 °F 17.1 °F 96% 30.24 in 10.0 mi East 3.5 mph - 0.00 in   Overcast
12:53 AM 19.0 °F - 18.0 °F 96% 30.24 in 10.0 mi Calm Calm - 0.00 in   Overcast
1:53 AM 18.0 °F 12.7 °F 17.1 °F 96% 30.25 in 10.0 mi ESE 3.5 mph - N/A   Overcast
2:53 AM 17.1 °F 8.7 °F 16.0 °F 96% 30.25 in 10.0 mi NE 5.8 mph - N/A   Overcast
3:04 AM 17.1 °F 8.7 °F 16.0 °F 96% 30.25 in 10.0 mi NE 5.8 mph - N/A   Overcast
3:53 AM 16.0 °F 7.4 °F 16.0 °F 100% 30.26 in 9.0 mi East 5.8 mph - N/A   Overcast
4:22 AM 16.0 °F - 15.1 °F 96% 30.26 in 10.0 mi Calm Calm - N/A   Overcast
4:53 AM 15.1 °F 6.4 °F 14.0 °F 95% 30.26 in 8.0 mi East 5.8 mph - N/A   Overcast
5:25 AM 15.1 °F 5.2 °F 12.9 °F 91% 30.26 in 10.0 mi ENE 6.9 mph - N/A   Overcast
5:53 AM 14.0 °F 2.9 °F 12.9 °F 95% 30.27 in 10.0 mi ENE 8.1 mph - N/A   Overcast
6:53 AM 14.0 °F 6.5 °F 12.9 °F 95% 30.27 in 10.0 mi East 4.6 mph - N/A   Overcast
7:53 AM 15.1 °F - 12.9 °F 91% 30.26 in 10.0 mi Calm Calm - N/A   Overcast
8:53 AM 16.0 °F 6.3 °F 12.9 °F 88% 30.26 in 10.0 mi East 6.9 mph - N/A   Overcast
9:32 AM 15.1 °F 4.2 °F 12.9 °F 91% 30.26 in 10.0 mi East 8.1 mph - N/A   Overcast
9:53 AM 15.1 °F 4.2 °F 12.9 °F 91% 30.27 in 10.0 mi East 8.1 mph - N/A   Overcast
10:41 AM 15.1 °F 7.7 °F 12.9 °F 91% 30.27 in 10.0 mi ENE 4.6 mph - N/A   Overcast
10:53 AM 16.0 °F 8.8 °F 12.9 °F 88% 30.27 in 10.0 mi NE 4.6 mph - N/A   Overcast
11:08 AM 16.0 °F 7.4 °F 12.9 °F 88% 30.28 in 10.0 mi East 5.8 mph - N/A   Overcast
11:51 AM 17.6 °F 8.2 °F 14.0 °F 86% 30.28 in 10.0 mi East 6.9 mph - N/A   Scattered Clouds
11:53 AM 17.1 °F 7.6 °F 14.0 °F 88% 30.28 in 10.0 mi East 6.9 mph - N/A   Scattered Clouds
12:53 PM 18.0 °F 8.7 °F 14.0 °F 84% 30.28 in 10.0 mi East 6.9 mph - N/A   Scattered Clouds
1:53 PM 19.0 °F 10.0 °F 15.1 °F 85% 30.27 in 10.0 mi East 6.9 mph - N/A   Scattered Clouds
2:53 PM 19.9 °F 11.1 °F 16.0 °F 85% 30.25 in 10.0 mi SSE 6.9 mph - N/A   Scattered Clouds
3:53 PM 19.9 °F 14.9 °F 16.0 °F 85% 30.24 in 10.0 mi SW 3.5 mph - N/A   Scattered Clouds
4:53 PM 21.0 °F 14.6 °F 16.0 °F 81% 30.24 in 10.0 mi WSW 4.6 mph - N/A   Mostly Cloudy
5:53 PM 23.0 °F - 17.1 °F 78% 30.22 in 10.0 mi Calm Calm - N/A   Mostly Cloudy
6:53 PM 24.1 °F - 18.0 °F 77% 30.21 in 10.0 mi Calm Calm - N/A   Mostly Cloudy
7:53 PM 25.0 °F 16.3 °F 17.1 °F 72% 30.20 in 10.0 mi NE 8.1 mph - N/A   Mostly Cloudy
8:53 PM 23.0 °F 12.4 °F 15.1 °F 72% 30.18 in 10.0 mi North 10.4 mph - N/A   Mostly Cloudy
9:53 PM 24.1 °F 14.4 °F 12.9 °F 62% 30.19 in 10.0 mi NNE 9.2 mph - N/A   Overcast
10:53 PM 21.9 °F - 12.9 °F 68% 30.19 in 10.0 mi Calm Calm - N/A   Overcast
11:53 PM 23.0 °F 8.0 °F 12.0 °F 63% 30.18 in 10.0 mi NE 20.7 mph - N/A   Mostly Cloudy